TimeEST,TemperatureF,Dew PointF,Humidity,Sea Level PressureIn,VisibilityMPH,Wind Direction,Wind SpeedMPH,Gust SpeedMPH,PrecipitationIn,Events,Conditions,WindDirDegrees,DateUTC
12:15 AM,28.4,21.2,74,29.97,10.0,SSW,3.5,-,N/A,,Clear,200,2013-02-15 05:15:00
12:35 AM,30.2,21.2,69,29.97,10.0,SSW,3.5,-,N/A,,Clear,200,2013-02-15 05:35:00
1:15 AM,28.4,23.0,80,29.98,10.0,SSW,3.5,-,N/A,,Clear,200,2013-02-15 06:15:00
1:35 AM,30.2,23.0,75,29.99,10.0,SSW,4.6,-,N/A,,Clear,210,2013-02-15 06:35:00
1:55 AM,30.2,24.8,80,29.98,10.0,SSW,5.8,-,N/A,,Clear,200,2013-02-15 06:55:00
2:15 AM,30.2,24.8,80,29.97,10.0,SSW,5.8,-,N/A,,Partly Cloudy,210,2013-02-15 07:15:00
2:35 AM,30.2,24.8,80,29.97,8.0,SSW,4.6,-,N/A,,Partly Cloudy,210,2013-02-15 07:35:00
2:55 AM,30.2,26.6,86,29.98,5.0,SSW,5.8,-,N/A,,Mostly Cloudy,210,2013-02-15 07:55:00
3:35 AM,32.0,28.4,87,29.97,4.0,SSW,6.9,-,N/A,,Overcast,210,2013-02-15 08:35:00
3:55 AM,32.0,28.4,87,29.97,3.0,SW,4.6,-,N/A,,Overcast,220,2013-02-15 08:55:00
4:15 AM,32.0,28.4,87,29.97,3.0,SSW,4.6,-,N/A,,Overcast,210,2013-02-15 09:15:00
4:35 AM,32.0,28.4,87,29.97,3.0,SSW,4.6,-,N/A,,Overcast,210,2013-02-15 09:35:00
4:55 AM,32.0,28.4,87,29.97,3.0,SSW,3.5,-,N/A,,Mostly Cloudy,210,2013-02-15 09:55:00
5:15 AM,30.2,28.4,93,29.98,2.5,SSW,3.5,-,N/A,,Scattered Clouds,200,2013-02-15 10:15:00
5:55 AM,30.2,26.6,86,29.98,2.0,SSW,4.6,-,N/A,,Overcast,210,2013-02-15 10:55:00
6:15 AM,30.2,26.6,86,29.98,1.5,SSW,4.6,-,N/A,,Mostly Cloudy,200,2013-02-15 11:15:00
6:55 AM,30.2,28.4,93,29.98,0.8,SSW,4.6,-,N/A,,Overcast,210,2013-02-15 11:55:00
7:35 AM,32.0,28.4,87,29.99,0.8,SSW,3.5,-,N/A,,Overcast,210,2013-02-15 12:35:00
8:15 AM,33.8,30.2,87,29.99,2.0,SSW,4.6,-,N/A,,Clear,210,2013-02-15 13:15:00
8:35 AM,35.6,30.2,81,29.99,3.0,SSW,5.8,-,N/A,,Clear,210,2013-02-15 13:35:00
8:55 AM,37.4,30.2,75,30.00,5.0,SW,6.9,-,N/A,,Clear,220,2013-02-15 13:55:00
9:15 AM,39.2,30.2,70,30.00,7.0,SSW,6.9,-,N/A,,Clear,210,2013-02-15 14:15:00
9:35 AM,41.0,30.2,65,30.00,9.0,SW,9.2,-,N/A,,Clear,220,2013-02-15 14:35:00
9:55 AM,41.0,28.4,61,30.00,10.0,SSW,5.8,-,N/A,,Clear,200,2013-02-15 14:55:00
10:15 AM,42.8,28.4,57,29.99,10.0,SSW,8.1,19.6,N/A,,Clear,210,2013-02-15 15:15:00
10:55 AM,44.6,30.2,57,29.99,10.0,SSW,5.8,17.3,N/A,,Clear,200,2013-02-15 15:55:00
11:15 AM,46.4,30.2,53,29.99,10.0,SSW,10.4,19.6,N/A,,Clear,210,2013-02-15 16:15:00
11:35 AM,46.4,30.2,53,29.97,10.0,SSW,4.6,-,N/A,,Clear,200,2013-02-15 16:35:00
11:55 AM,48.2,30.2,50,29.96,10.0,SSW,9.2,16.1,N/A,,Clear,200,2013-02-15 16:55:00
12:15 PM,48.2,30.2,50,29.96,10.0,SSW,5.8,16.1,N/A,,Clear,200,2013-02-15 17:15:00
12:55 PM,48.2,30.2,50,29.94,10.0,SW,5.8,17.3,N/A,,Partly Cloudy,220,2013-02-15 17:55:00
1:35 PM,48.2,30.2,50,29.93,10.0,Calm,Calm,-,N/A,,Clear,0,2013-02-15 18:35:00
1:55 PM,48.2,32.0,54,29.93,10.0,South,5.8,-,N/A,,Clear,190,2013-02-15 18:55:00
2:15 PM,48.2,32.0,54,29.93,10.0,SSW,5.8,-,N/A,,Clear,200,2013-02-15 19:15:00
2:35 PM,48.2,32.0,54,29.92,10.0,SSW,6.9,-,N/A,,Clear,200,2013-02-15 19:35:00
9:35 PM,35.6,30.2,81,29.93,10.0,SSW,3.5,-,N/A,,Clear,210,2013-02-16 02:35:00